{"data":{"norad_id":68902,"intl_designator":"2026-097H","name":"STARLINK-37564","alt_names":[],"object_type":"PAYLOAD","status":"ACTIVE","operator":null,"country":"US","launch_date":"2026-04-30","launch_site_code":"AFWTR","launch_vehicle":null,"mission":null,"orbit_class":"UNKNOWN","rcs_meters":null,"size_class":null,"mass_kg":null,"dimensions":null,"purposes":["comms"],"wikipedia_slug":null,"has_3d_model":false,"image_url":null,"decayed_at":null,"tle_current":{"epoch":"2026-05-25T02:48:39.000384Z","epoch_age_seconds":79079,"freshness":"FRESH","line1":"1 68902U 26097H   26145.11711806  .00024618  00000+0  45257-3 0  9998","line2":"2 68902  97.2852 340.8566 0001835  87.4253 272.7208 15.49209071  3940","mean_motion":15.49209071,"eccentricity":0.0001835,"inclination_deg":97.2852,"raan_deg":340.8566,"arg_perigee_deg":87.4253,"mean_anomaly_deg":272.7208,"bstar":0.00045257,"rev_number":394,"period_min":92.950656367542,"perigee_km":417.79127807686,"apogee_km":420.2858415073,"semimajor_km":6797.1755597921,"source":"CELESTRAK","updated_at":"2026-05-25T13:38:22.067538Z"}}}